[[{"header":{"parameterUnit":"m.s-1","parameterCategory":1,"la1":30.2991,"la2":30.254,"lo1":-89.0895,"lo2":-89.0444,"dy":0.0017,"dx":0.0017,"nx":28,"ny":28,"refTime":"2024-08-01T09:00:00:Z","depth":0,"parameterNumber":2,"parameterNumberName":"U-component_of_WINDS"},"data":[0,0,0,0,0,0,0,0,0,0,0,0,0,0,0,0,0,0,0,0,0,0,0,0,0,0,0,0,0,0,0,0,0,0,0,0,0,0,0,0,0,0,0,0,0,0,0,0,0,0,0,0,0,0,0,0,0,0,2.1754,2.1755,0,2.18,2.1801,2.1801,2.1759,2.1757,2.1755,2.1754,2.1802,2.1805,2.1808,0,0,0,0,0,0,0,0,0,0,0,0,0,2.163,2.1632,2.1754,2.1755,2.1755,2.18,2.1801,2.1801,2.1759,2.1757,2.1755,2.1753,2.1801,2.1805,2.1808,0,0,0,0,0,0,0,0,0,0,0,0,0,2.1681,2.1633,2.1754,2.174,2.1739,2.18,2.1801,2.1801,2.176,2.1757,2.1754,2.1752,2.18,2.1804,2.1809,2.1887,0,0,2.1822,2.1824,0,0,0,0,0,0,0,0,2.1678,2.1685,2.1741,2.1741,2.174,2.1771,2.1774,2.183,2.176,2.1752,2.1754,2.1751,2.1794,2.1799,2.1813,2.1889,2.1891,2.1822,2.1825,2.1827,2.1828,0,0,0,0,0,0,0,2.1674,2.1683,2.1772,2.1742,2.1741,2.1731,2.1735,2.1785,2.1787,2.1752,2.1749,2.1755,2.1793,2.1809,2.1814,2.1892,2.1822,2.1826,2.1829,2.183,2.203,2.2033,0,0,0,0,0,0,2.1672,2.168,2.1771,2.1774,2.1702,2.1735,2.174,2.1764,2.1786,2.1787,2.1757,2.1753,2.1803,2.1809,2.1815,2.1905,2.1827,2.1831,2.1833,2.2028,2.2031,2.2034,0,0,0,0,0,0,2.167,2.1681,2.1769,2.1726,2.1737,2.174,2.1767,2.1766,2.1781,2.179,2.179,2.1773,2.1801,2.1809,2.1868,2.1906,2.1833,2.1837,2.2024,2.2029,2.2032,2.2088,0,0,0,0,0,0,2.1666,2.168,2.171,2.1727,2.1739,2.1822,2.1769,2.1769,2.1789,2.1784,2.1805,2.1806,2.18,2.1862,2.1873,2.1911,2.184,2.2021,2.2026,2.2031,2.2082,2.2093,2.2102,0,0,0,0,0,2.1662,2.1725,2.1712,2.1723,2.1777,2.1824,2.1831,2.1822,2.1792,2.1822,2.1827,2.1805,2.1901,2.1868,2.188,2.192,2.2018,2.2025,2.2031,2.2078,2.2091,2.2102,0,0,0,0,0,0,2.1714,2.1727,2.1713,2.1783,2.1802,2.1817,2.1854,2.1837,2.1865,2.1859,2.1848,2.1853,2.1915,2.1924,2.1887,2.1995,2.1955,2.1964,2.1987,2.1999,2.2009,2.2005,2.1844,0,0,0,0,0,2.1733,2.177,2.178,2.1841,2.1851,2.1851,2.1872,2.1863,2.1883,2.1891,2.19,2.1921,2.1955,2.1978,2.201,2.2084,2.2086,2.2117,2.2127,2.2135,2.2142,2.2179,2.2191,2.2054,2.2054,2.2054,0,0,2.1774,2.1786,2.181,2.1852,2.1866,2.1903,2.1858,2.1901,2.1929,2.1898,2.1953,2.1961,2.1982,2.2048,2.2077,2.2057,2.2181,2.2143,2.2149,2.2152,2.2186,2.2199,2.2211,2.2058,2.2057,2.2057,0,0,2.1866,2.1881,2.1931,2.1945,2.1967,2.1966,2.1978,2.1994,2.1997,2.2053,2.2029,2.2062,2.2122,2.2137,2.2153,2.2249,2.2229,2.226,2.2312,2.2347,2.2358,2.2367,2.2399,2.2411,2.2268,2.2268,2.2268,0,2.1914,2.197,2.196,2.2003,2.2021,2.1993,2.2043,2.2058,2.209,2.2102,2.2079,2.2152,2.2165,2.2232,2.2255,2.227,2.2282,2.2257,2.2357,2.2367,2.2375,2.2405,2.2417,2.2271,2.2271,2.2271,2.227,0,2.2027,2.2066,2.2104,2.2133,2.2156,2.2203,2.2198,2.2222,2.2211,2.2212,2.2267,2.2282,2.2315,2.2331,2.2322,2.2396,2.2382,2.2359,2.2318,2.2392,2.242,2.2431,2.2276,2.2275,2.2274,2.2273,0,0,2.2154,2.2174,2.2188,2.2199,2.222,2.2249,2.2295,2.2326,2.2345,2.2368,2.2404,2.2454,2.2431,2.2449,2.2441,2.2473,2.2544,2.2445,2.2445,2.246,2.2624,2.2639,2.2653,2.2531,2.2534,2.2535,2.2621,0,2.2245,2.2322,2.2312,2.2386,2.242,2.2393,2.2432,2.2448,2.245,2.2479,2.2482,2.2516,2.2485,2.2495,2.2526,2.2529,2.2576,2.2523,2.2563,2.2565,2.2556,2.2668,2.2686,2.2765,2.2632,2.2634,2.2635,0,2.2362,2.2386,2.2462,2.2474,2.2488,2.2523,2.2549,2.2578,2.2596,2.2595,2.2613,2.2599,2.2643,2.2602,2.2661,2.2625,2.2641,2.2645,2.2648,2.2649,2.2603,2.267,2.2791,2.2802,2.2653,2.2651,2.265,0,2.2443,2.2495,2.2546,2.2557,2.2573,2.2598,2.2606,2.2621,2.2639,2.2662,2.2674,2.2703,2.2718,2.274,2.2733,2.2705,2.2793,2.2752,2.2792,2.2792,2.281,2.2809,2.2933,2.2825,2.2824,2.2824,2.2824,0,2.2544,2.2592,2.2582,2.2614,2.2665,2.2653,2.2704,2.2709,2.2722,2.2753,2.2733,2.2762,2.2753,2.2782,2.2777,2.2825,2.2833,2.2832,2.283,2.2833,2.2832,2.2842,2.2835,2.2827,2.2827,2.2826,2.2826,0,2.2643,2.2639,2.2693,2.2703,2.2707,2.2744,2.2752,2.2781,2.2781,2.282,2.2829,2.2828,2.2861,2.2857,2.2895,2.2891,2.295,2.2942,2.2943,2.2941,2.2979,2.2975,2.3112,2.3128,2.3012,2.3013,2.3014,0,2.2707,2.2742,2.2755,2.2774,2.2783,2.2814,2.2832,2.2822,2.2841,2.2862,2.2888,2.2919,2.2942,2.2996,2.2999,2.3027,2.3018,2.3064,2.3022,2.3022,2.3015,2.3012,2.3014,2.3072,2.3073,2.3074,2.3075,0,2.282,2.2815,2.2842,2.2867,2.2888,2.2908,2.2926,2.2942,2.2933,2.2956,2.2989,2.3007,2.3043,2.3073,2.3099,2.3107,2.3089,2.3088,2.3098,2.31,2.3098,2.3097,2.2963,2.3085,2.3084,2.3083,2.3083,2.3082,2.2901,2.293,2.2942,2.2972,2.2983,2.3,2.3026,2.3028,2.3055,2.3083,2.3076,2.3112,2.3126,2.3158,2.3168,2.3196,2.3179,2.3194,2.3198,2.3201,2.3204,2.3096,2.3201,2.3201,2.32,2.32,2.32,0,2.301,2.3016,2.3044,2.3067,2.309,2.3071,2.3089,2.3109,2.314,2.3155,2.3178,2.3214,2.3242,2.3246,2.3273,2.3294,2.3286,2.3301,2.3298,2.33,2.3219,2.3207,2.3307,2.3307,2.3307,2.3307,2.3307,2.3307,2.3069,2.3116,2.3112,2.3164,2.317,2.3204,2.3215,2.323,2.3241,2.3281,2.3304,2.3307,2.3316,2.3343,2.3368,2.3368,2.3378,2.3395,2.3392,2.3317,2.3306,2.3296,2.3283,2.3398,2.3398,2.347,2.3471,2.3471]},{"header":{"parameterUnit":"m.s-1","parameterCategory":1,"la1":30.2991,"la2":30.254,"lo1":-89.0895,"lo2":-89.0444,"dy":0.0017,"dx":0.0017,"nx":28,"ny":28,"refTime":"2024-08-01T09:00:00:Z","depth":0,"parameterNumber":3,"parameterNumberName":"V-component_of_WINDS"},"data":[0,0,0,0,0,0,0,0,0,0,0,0,0,0,0,0,0,0,0,0,0,0,0,0,0,0,0,0,0,0,0,0,0,0,0,0,0,0,0,0,0,0,0,0,0,0,0,0,0,0,0,0,0,0,0,0,0,0,2.3367,2.3368,0,2.3431,2.3431,2.3432,2.3419,2.3418,2.3417,2.3416,2.3476,2.3479,2.3482,0,0,0,0,0,0,0,0,0,0,0,0,0,2.3229,2.3232,2.3367,2.3368,2.3369,2.3431,2.3431,2.3432,2.3419,2.3418,2.3416,2.3415,2.3475,2.3479,2.3482,0,0,0,0,0,0,0,0,0,0,0,0,0,2.3291,2.3233,2.3367,2.337,2.3371,2.343,2.3431,2.3432,2.3419,2.3418,2.3416,2.3414,2.3474,2.3478,2.3482,2.3542,0,0,2.3495,2.3496,0,0,0,0,0,0,0,0,2.3287,2.3296,2.3369,2.337,2.3371,2.3415,2.3405,2.3469,2.342,2.3401,2.3415,2.3413,2.3457,2.3462,2.3478,2.3545,2.3547,2.3495,2.3498,2.3499,2.35,0,0,0,0,0,0,0,2.3283,2.3293,2.3392,2.337,2.3371,2.3366,2.3373,2.3417,2.3438,2.3402,2.3402,2.3409,2.3457,2.3474,2.3479,2.3548,2.3495,2.3499,2.3501,2.3503,2.3664,2.3666,0,0,0,0,0,0,2.3278,2.3289,2.339,2.3394,2.3324,2.337,2.3378,2.3403,2.3437,2.3441,2.3411,2.3409,2.3468,2.3475,2.3481,2.3552,2.3499,2.3503,2.3505,2.3663,2.3665,2.3667,0,0,0,0,0,0,2.3275,2.3287,2.3388,2.3342,2.3354,2.3374,2.3402,2.3405,2.3422,2.3444,2.3447,2.3425,2.3467,2.3476,2.3527,2.3554,2.3505,2.3509,2.366,2.3663,2.3666,2.3694,0,0,0,0,0,0,2.3272,2.3287,2.3311,2.3342,2.3356,2.3434,2.3404,2.3407,2.3429,2.3427,2.3458,2.3461,2.3466,2.3521,2.3531,2.3559,2.3512,2.3658,2.3662,2.3665,2.3691,2.3698,2.3703,0,0,0,0,0,2.3267,2.3316,2.3312,2.3324,2.3388,2.3435,2.3443,2.345,2.3431,2.3455,2.3469,2.346,2.355,2.3526,2.3537,2.3567,2.3656,2.3661,2.3665,2.3688,2.3696,2.3703,0,0,0,0,0,0,2.3286,2.332,2.3316,2.3378,2.3404,2.3433,2.3463,2.3458,2.3489,2.3486,2.3491,2.3498,2.3549,2.3563,2.3537,2.3625,2.36,2.3607,2.3614,2.3622,2.3628,2.3623,2.3515,0,0,0,0,0,2.3298,2.3335,2.3362,2.3414,2.3427,2.3443,2.3464,2.3466,2.3493,2.3504,2.3521,2.3546,2.358,2.3602,2.3634,2.3693,2.3698,2.3718,2.3725,2.373,2.3735,2.3765,2.3773,2.3681,2.3681,2.3681,0,0,2.3322,2.3345,2.3368,2.3418,2.3439,2.3475,2.3452,2.3492,2.3519,2.3509,2.3558,2.3572,2.36,2.3655,2.368,2.3668,2.3762,2.3735,2.3739,2.3741,2.377,2.3779,2.3786,2.3684,2.3683,2.3683,0,0,2.3384,2.3406,2.3451,2.3472,2.3503,2.3513,2.3524,2.3553,2.3562,2.3612,2.3605,2.3636,2.3694,2.3714,2.3731,2.3799,2.3791,2.3809,2.3841,2.387,2.3878,2.3884,2.3906,2.3915,2.3815,2.3815,2.3815,0,2.3409,2.3466,2.3473,2.3514,2.3535,2.3529,2.3572,2.3592,2.3632,2.3646,2.3632,2.3704,2.3723,2.3781,2.3797,2.3812,2.3822,2.3805,2.3876,2.3883,2.3889,2.391,2.3919,2.3817,2.3816,2.3816,2.3816,0,2.3495,2.3534,2.3565,2.3605,2.363,2.3672,2.3683,2.3707,2.3707,2.3718,2.3767,2.3789,2.3824,2.3839,2.3839,2.3896,2.3887,2.3875,2.385,2.39,2.3919,2.3928,2.3819,2.3819,2.3818,2.3818,0,0,2.3571,2.3614,2.3625,2.3642,2.3676,2.3705,2.3746,2.3781,2.3801,2.3828,2.3861,2.3909,2.3898,2.3918,2.392,2.3946,2.3995,2.393,2.393,2.394,2.4057,2.4065,2.4075,2.3991,2.3992,2.3994,2.4054,0,2.3635,2.3708,2.3715,2.378,2.3815,2.3809,2.3843,2.3867,2.3877,2.3907,2.3918,2.3952,2.3935,2.3947,2.3972,2.3984,2.4019,2.398,2.4019,2.402,2.4011,2.4085,2.4094,2.415,2.4062,2.4063,2.4064,0,2.372,2.375,2.3819,2.3846,2.3861,2.3892,2.3924,2.3954,2.3979,2.3984,2.4006,2.4005,2.4044,2.4018,2.4071,2.4044,2.406,2.4069,2.4071,2.4074,2.4044,2.4088,2.4169,2.4177,2.4077,2.4076,2.4075,0,2.3767,2.3825,2.3873,2.3887,2.3921,2.3943,2.3957,2.3981,2.4001,2.4029,2.4042,2.4073,2.409,2.4114,2.412,2.4101,2.4172,2.4147,2.4176,2.4175,2.419,2.4189,2.4272,2.4203,2.4203,2.4203,2.4203,0,2.3837,2.3878,2.3894,2.3923,2.3968,2.3975,2.4019,2.4032,2.4053,2.4083,2.408,2.4108,2.4115,2.4143,2.4148,2.419,2.4198,2.4202,2.4202,2.4202,2.4201,2.4211,2.4207,2.4205,2.4204,2.4204,2.4204,0,2.3896,2.3909,2.396,2.3987,2.3995,2.4027,2.4049,2.4076,2.4086,2.4124,2.4133,2.4148,2.4181,2.419,2.423,2.4233,2.4282,2.4279,2.4273,2.4273,2.43,2.4297,2.4393,2.4405,2.4329,2.4329,2.433,0,2.394,2.3971,2.4002,2.4022,2.4038,2.4071,2.4092,2.4099,2.412,2.4151,2.4173,2.4207,2.4233,2.4286,2.43,2.4329,2.4327,2.4358,2.4331,2.4328,2.4325,2.4322,2.4324,2.4363,2.4363,2.4364,2.4365,0,2.4014,2.4019,2.405,2.4082,2.4107,2.4133,2.4158,2.4174,2.4184,2.4208,2.4242,2.4263,2.4304,2.4336,2.4365,2.4378,2.4372,2.4373,2.4381,2.438,2.4374,2.4376,2.4286,2.4371,2.437,2.437,2.4369,2.4369,2.4066,2.4093,2.4119,2.4152,2.4172,2.4194,2.4221,2.4234,2.4263,2.4297,2.4299,2.4336,2.4358,2.4398,2.4412,2.444,2.443,2.4442,2.4445,2.4447,2.4449,2.4371,2.4445,2.4445,2.4445,2.4445,2.4445,0,2.4139,2.4155,2.4186,2.4221,2.4247,2.424,2.4267,2.4288,2.4321,2.4343,2.437,2.4408,2.4439,2.4454,2.4484,2.4503,2.4501,2.451,2.4508,2.4511,2.4457,2.4446,2.4511,2.4511,2.4511,2.4511,2.4511,2.4511,2.418,2.4225,2.4232,2.4285,2.4301,2.4338,2.4353,2.4373,2.439,2.4434,2.446,2.447,2.4488,2.4519,2.4546,2.455,2.456,2.4571,2.4573,2.4522,2.4515,2.4508,2.4498,2.4573,2.4573,2.4624,2.4625,2.4625]}]]